�N����,����,�~����,�C��,���x,�C��,����,���ϕ���,�ő�u�ԕ���,�ő厞����,���˗�,�I�_���x,�n�����x,�ő啗���N��,DTYPE
"17/04/29","00:10",0.0,9.7,80.8,1001.9,308.9,1.6,3.1,316.6,0.00,6.6,13.8,"00:00:16",1
"17/04/29","00:20",0.0,9.8,81.8,1002.4,305.3,1.6,2.1,312.7,0.00,6.9,13.9,"00:17:58",1
"17/04/29","00:30",0.0,9.9,81.5,1002.4,295.6,1.5,2.0,267.2,0.00,6.9,13.6,"00:27:10",1
"17/04/29","00:40",0.0,9.9,81.7,1002.2,288.1,1.3,2.2,322.6,0.00,7.0,13.6,"00:38:16",1
"17/04/29","00:50",0.0,9.7,82.4,1002.2,307.4,0.8,1.9,310.1,0.00,6.9,13.4,"00:47:40",1
"17/04/29","01:00",0.0,9.7,83.1,1001.7,311.1,1.8,2.4,330.6,0.00,7.0,13.6,"00:50:02",1
"17/04/29","01:10",0.0,9.4,84.0,1001.7,309.3,1.7,3.1,316.2,0.00,6.9,13.4,"01:01:12",1
"17/04/29","01:20",0.0,9.2,84.8,1001.9,296.6,1.3,1.7,318.9,0.00,6.8,13.6,"01:19:38",1
"17/04/29","01:30",0.0,9.1,85.6,1001.9,298.3,1.3,1.9,328.4,0.00,6.9,13.6,"01:29:30",1
"17/04/29","01:40",0.0,9.0,86.2,1001.9,331.4,2.1,3.1,337.6,0.00,6.9,13.4,"01:31:38",1
"17/04/29","01:50",0.0,8.8,87.2,1001.9,307.5,1.6,2.2,319.2,0.00,6.8,13.3,"01:47:12",1
"17/04/29","02:00",0.0,8.8,87.9,1001.5,299.5,1.8,2.6,316.3,0.00,6.9,13.3,"01:53:04",1
"17/04/29","02:10",0.0,8.9,88.0,1001.7,298.1,1.8,2.2,310.1,0.00,7.1,13.2,"02:04:38",1
"17/04/29","02:20",0.0,9.0,87.9,1001.9,316.1,2.0,2.7,323.3,0.00,7.1,13.1,"02:11:44",1
"17/04/29","02:30",0.0,8.8,88.1,1001.5,318.9,1.5,2.5,327.0,0.00,7.0,13.2,"02:28:40",1
"17/04/29","02:40",0.0,8.7,88.7,1001.7,295.7,1.2,1.9,305.8,0.00,7.0,12.9,"02:30:02",1
"17/04/29","02:50",0.0,9.0,89.1,1001.7,308.5,2.1,2.8,323.9,0.00,7.3,13.1,"02:41:54",1
"17/04/29","03:00",0.0,9.2,88.3,1001.9,317.7,1.7,2.6,320.7,0.00,7.4,13.1,"02:50:56",1
"17/04/29","03:10",0.0,9.2,88.4,1001.9,313.1,1.6,2.2,321.0,0.00,7.4,12.9,"03:02:00",1
"17/04/29","03:20",0.0,9.1,88.7,1001.7,311.6,1.5,2.2,323.0,0.00,7.4,13.2,"03:12:42",1
"17/04/29","03:30",0.0,9.2,88.8,1001.2,325.1,1.5,2.0,314.2,0.00,7.5,13.1,"03:20:24",1
"17/04/29","03:40",0.0,9.2,88.6,1001.5,291.7,1.1,1.7,313.6,0.00,7.5,12.9,"03:39:48",1
"17/04/29","03:50",0.0,9.1,89.1,1001.5,311.3,1.8,2.6,311.6,0.00,7.4,12.9,"03:45:20",1
"17/04/29","04:00",0.0,9.2,89.0,1001.2,290.6,1.6,2.0,306.5,0.00,7.5,12.9,"03:53:28",1
"17/04/29","04:10",0.0,9.1,88.6,1001.5,300.6,1.6,2.4,307.8,0.00,7.4,12.9,"04:00:08",1
"17/04/29","04:20",0.0,9.1,88.7,1001.5,316.5,1.7,2.8,310.7,0.00,7.4,13.0,"04:11:44",1
"17/04/29","04:30",0.0,8.9,88.8,1001.5,316.4,1.8,2.2,314.6,0.00,7.2,12.9,"04:28:02",1
"17/04/29","04:40",0.0,8.7,89.4,1001.2,298.6,1.7,2.2,311.1,0.00,7.1,13.0,"04:30:56",1
"17/04/29","04:50",0.0,8.7,89.7,1001.5,302.9,1.3,1.9,301.6,0.00,7.1,12.7,"04:44:10",1
"17/04/29","05:00",0.0,8.5,90.2,1001.5,293.4,1.6,2.0,271.7,0.00,7.0,12.7,"04:56:48",1
"17/04/29","05:10",0.0,8.7,90.4,1001.2,302.2,1.7,2.5,310.2,0.00,7.3,12.7,"05:02:24",1
"17/04/29","05:20",0.0,8.8,90.2,1001.7,309.2,1.3,2.2,313.5,0.00,7.3,12.7,"05:10:48",1
"17/04/29","05:30",0.0,8.8,90.5,1001.5,302.0,1.7,2.8,306.0,0.00,7.4,12.8,"05:27:54",1
"17/04/29","05:40",0.0,8.9,90.4,1001.7,321.4,1.7,2.8,316.3,0.00,7.5,12.7,"05:30:48",1
"17/04/29","05:50",0.0,8.8,90.6,1001.5,291.0,1.2,1.7,284.7,0.00,7.4,12.9,"05:46:42",1
"17/04/29","06:00",0.0,8.8,90.9,1001.5,295.4,1.3,1.9,311.8,0.00,7.4,12.7,"05:59:36",1
"17/04/29","06:10",0.0,8.9,90.8,1001.5,316.0,1.5,2.0,303.4,0.00,7.5,12.6,"06:01:12",1
"17/04/29","06:20",0.0,9.2,90.9,1001.5,303.1,1.3,2.1,306.3,0.01,7.8,12.7,"06:17:04",1
"17/04/29","06:30",0.0,9.5,90.6,1001.7,300.2,1.2,2.4,324.6,0.02,8.1,12.7,"06:28:00",1
"17/04/29","06:40",0.0,10.5,90.5,1001.7,297.3,1.1,2.2,325.1,0.07,9.1,12.6,"06:33:28",1
"17/04/29","06:50",0.0,11.5,84.3,1001.7,235.3,0.1,0.6,282.9,0.08,9.0,12.6,"06:47:28",1
"17/04/29","07:00",0.0,12.1,81.9,1001.9,325.4,1.0,1.9,317.5,0.08,9.1,12.8,"06:53:12",1
"17/04/29","07:10",0.0,12.3,80.0,1002.2,276.9,0.6,0.9,263.8,0.09,9.0,12.7,"07:03:20",1
"17/04/29","07:20",0.0,13.6,75.5,1002.2,304.6,0.6,1.0,308.9,0.14,9.4,12.9,"07:12:00",1
"17/04/29","07:30",0.0,14.2,71.8,1001.7,231.9,0.3,0.6,204.6,0.18,9.2,12.9,"07:26:16",1
"17/04/29","07:40",0.0,15.0,66.3,1002.2,273.4,0.3,0.9,136.2,0.21,8.8,13.0,"07:35:20",1
"17/04/29","07:50",0.0,15.1,63.6,1001.9,256.1,0.5,1.6,227.5,0.23,8.3,13.2,"07:45:12",1
"17/04/29","08:00",0.0,14.6,65.5,1001.9,260.6,0.5,1.6,29.1,0.12,8.3,13.2,"07:51:36",1
"17/04/29","08:10",0.0,15.5,63.0,1001.9,209.6,0.6,1.3,152.4,0.25,8.5,13.3,"08:01:28",1
"17/04/29","08:20",0.0,15.4,60.9,1001.9,118.8,0.7,1.8,111.2,0.23,7.9,13.5,"08:16:08",1
"17/04/29","08:30",0.0,15.9,62.3,1001.7,67.8,0.6,1.6,111.0,0.21,8.7,13.4,"08:24:08",1
"17/04/29","08:40",0.0,15.7,61.8,1001.2,213.1,0.6,1.4,187.0,0.18,8.4,13.7,"08:35:52",1
"17/04/29","08:50",0.0,15.7,64.6,1001.5,144.6,0.8,1.7,115.5,0.17,9.1,13.7,"08:41:28",1
"17/04/29","09:00",0.0,16.1,63.8,1001.2,172.8,1.0,1.9,130.6,0.22,9.3,13.7,"08:51:28",1
"17/04/29","09:10",0.0,16.4,64.3,1000.8,176.9,0.8,1.9,160.1,0.23,9.7,13.8,"09:01:28",1
"17/04/29","09:20",0.0,17.7,57.5,1000.8,186.4,1.1,2.5,192.6,0.43,9.3,13.9,"09:16:24",1
"17/04/29","09:30",0.0,18.0,55.3,1000.8,144.5,1.2,2.6,158.0,0.44,9.0,13.9,"09:26:40",1
"17/04/29","09:40",0.0,18.3,55.9,1000.8,136.2,1.5,3.4,126.8,0.43,9.4,14.3,"09:36:24",1
"17/04/29","09:50",0.0,18.8,56.9,1000.3,188.7,1.5,3.6,197.4,0.52,10.1,14.3,"09:47:12",1
"17/04/29","10:00",0.0,19.0,55.1,1000.0,150.7,1.7,3.9,120.7,0.49,9.8,14.5,"09:57:28",1
"17/04/29","10:10",0.0,18.6,55.5,1000.3,165.0,2.0,4.1,188.9,0.28,9.6,14.7,"10:09:36",1
"17/04/29","10:20",0.0,19.0,55.8,1000.3,191.6,1.5,3.3,206.7,0.37,10.0,14.9,"10:10:16",1
"17/04/29","10:30",0.0,19.6,50.5,1000.0,207.7,2.0,6.2,141.3,0.39,9.1,15.1,"10:24:16",1
"17/04/29","10:40",0.0,20.1,45.9,1000.3,293.4,1.5,4.2,231.5,0.22,8.1,15.0,"10:38:24",1
"17/04/29","10:50",0.0,20.4,42.4,1000.0,310.4,3.5,6.4,323.8,0.33,7.2,15.4,"10:47:12",1
"17/04/29","11:00",0.0,20.2,41.9,1000.3,288.5,3.0,5.2,309.8,0.32,6.9,15.2,"10:50:02",1
"17/04/29","11:10",0.0,20.5,42.4,1000.0,303.5,2.8,6.0,322.7,0.27,7.3,15.4,"11:09:12",1
"17/04/29","11:20",0.0,21.2,39.6,1000.0,278.8,2.5,6.2,350.0,0.52,7.0,15.6,"11:19:36",1
"17/04/29","11:30",0.0,20.7,42.3,1000.0,264.3,3.2,5.7,212.8,0.38,7.5,15.7,"11:25:52",1
"17/04/29","11:40",0.0,21.2,40.0,999.8,286.1,3.4,7.3,306.0,0.55,7.1,15.9,"11:37:20",1
"17/04/29","11:50",0.0,21.1,40.4,999.8,262.7,2.3,6.5,296.0,0.48,7.2,15.9,"11:40:48",1
"17/04/29","12:00",0.0,21.6,41.2,999.3,259.8,2.8,7.9,222.5,0.55,7.9,16.1,"11:58:56",1
"17/04/29","12:10",0.0,21.8,42.7,999.3,248.9,2.6,7.4,217.0,0.60,8.6,16.4,"12:07:28",1
"17/04/29","12:20",0.0,21.8,39.1,998.9,275.0,2.3,4.3,273.2,0.53,7.3,16.6,"12:16:32",1
"17/04/29","12:30",0.0,21.2,38.7,999.1,248.0,2.8,6.0,233.5,0.27,6.6,16.7,"12:23:52",1
"17/04/29","12:40",0.0,22.5,38.3,998.6,231.9,2.0,4.4,224.8,0.46,7.6,16.9,"12:31:28",1
"17/04/29","12:50",0.0,22.3,36.7,998.4,248.7,1.5,4.1,265.0,0.54,6.8,16.9,"12:45:44",1
"17/04/29","13:00",0.0,21.5,38.0,998.4,284.3,1.7,4.7,297.9,0.20,6.6,17.1,"12:53:44",1
"17/04/29","13:10",0.0,21.9,36.6,998.2,261.4,1.7,4.2,179.4,0.24,6.4,17.2,"13:06:56",1
"17/04/29","13:20",0.0,21.9,36.1,998.4,245.0,2.5,5.9,202.7,0.30,6.2,17.2,"13:16:56",1
"17/04/29","13:30",0.0,21.5,37.3,998.4,225.6,2.3,5.7,227.8,0.17,6.4,16.9,"13:23:12",1
"17/04/29","13:40",0.0,21.2,38.4,998.6,249.8,2.6,5.4,223.9,0.09,6.5,17.2,"13:30:56",1
"17/04/29","13:50",0.0,19.5,43.2,1000.5,315.5,6.0,19.5,350.4,0.01,6.7,17.0,"13:46:48",1
"17/04/29","14:00",0.0,15.9,60.3,1000.8,340.4,7.8,16.3,329.5,0.00,8.3,16.9,"13:50:08",1
"17/04/29","14:10",0.4,14.1,71.5,1001.0,342.7,7.8,13.2,342.4,0.00,9.1,16.6,"14:08:54",1
"17/04/29","14:20",0.4,13.0,78.3,1001.0,349.3,6.0,11.0,327.8,0.00,9.4,16.2,"14:10:32",1
"17/04/29","14:30",0.2,13.0,79.0,1001.2,329.5,4.4,9.8,331.3,0.02,9.5,16.3,"14:24:00",1
"17/04/29","14:40",0.2,13.2,78.7,1002.4,290.3,3.5,7.5,321.3,0.04,9.6,16.1,"14:37:38",1
"17/04/29","14:50",0.6,13.3,82.9,1001.0,333.8,2.3,4.1,322.4,0.09,10.5,15.9,"14:41:34",1
"17/04/29","15:00",0.4,14.9,82.4,1000.8,294.0,2.6,4.7,310.8,0.43,12.0,15.9,"14:55:28",1
"17/04/29","15:10",0.0,16.3,76.0,1001.2,303.1,3.4,6.5,325.7,0.54,12.1,16.0,"15:09:32",1
"17/04/29","15:20",0.0,17.0,72.5,1001.2,317.3,3.6,6.7,325.9,0.46,12.1,16.1,"15:13:12",1
"17/04/29","15:30",0.0,17.7,67.3,1001.7,303.9,2.6,6.0,337.1,0.38,11.6,16.1,"15:22:00",1
"17/04/29","15:40",0.0,18.3,64.4,1001.5,301.7,2.6,4.3,339.6,0.43,11.5,16.0,"15:38:48",1
"17/04/29","15:50",0.0,18.3,61.3,1001.7,293.1,2.6,5.4,327.0,0.35,10.8,16.3,"15:40:48",1
"17/04/29","16:00",0.0,18.7,58.7,1001.5,324.2,3.0,6.0,352.4,0.32,10.5,16.4,"15:58:08",1
"17/04/29","16:10",0.0,18.7,57.9,1001.5,330.5,3.2,6.2,338.1,0.29,10.3,16.5,"16:07:52",1
"17/04/29","16:20",0.0,19.0,55.5,1001.5,334.4,2.6,4.2,348.4,0.26,9.9,16.5,"16:10:40",1
"17/04/29","16:30",0.0,19.4,56.2,1001.0,310.2,2.0,4.1,343.1,0.24,10.5,16.7,"16:27:12",1
"17/04/29","16:40",0.0,19.8,54.7,1001.2,298.2,1.6,2.8,318.9,0.21,10.5,16.3,"16:30:56",1
"17/04/29","16:50",0.0,19.9,52.3,1001.2,313.5,2.1,4.2,341.4,0.18,9.9,16.6,"16:41:36",1
"17/04/29","17:00",0.0,19.5,51.5,1001.5,324.1,2.6,4.7,346.0,0.16,9.3,16.3,"16:51:52",1
"17/04/29","17:10",0.0,19.4,51.8,1001.2,319.1,2.6,4.9,338.4,0.14,9.3,16.4,"17:05:12",1
"17/04/29","17:20",0.0,19.5,52.3,1001.5,318.1,2.0,4.2,348.9,0.11,9.5,16.6,"17:14:16",1
"17/04/29","17:30",0.0,19.7,52.0,1001.5,296.3,1.2,2.2,320.2,0.09,9.6,16.5,"17:24:00",1
"17/04/29","17:40",0.0,19.5,52.1,1001.5,281.7,1.3,2.6,338.3,0.07,9.5,16.4,"17:37:44",1
"17/04/29","17:50",0.0,18.8,58.0,1001.5,317.2,1.7,2.6,338.1,0.02,10.4,16.2,"17:49:36",1
"17/04/29","18:00",0.0,17.7,64.4,1001.0,307.5,1.5,2.2,334.3,0.01,10.9,16.4,"17:53:04",1
"17/04/29","18:10",0.0,16.6,70.1,1001.9,277.0,1.2,2.0,257.9,0.00,11.2,16.2,"18:01:44",1
"17/04/29","18:20",0.0,15.8,73.5,1001.7,329.7,2.2,3.5,334.0,0.00,11.1,16.2,"18:18:40",1
"17/04/29","18:30",0.0,15.4,75.2,1002.2,302.4,1.8,3.6,335.9,0.00,11.1,16.2,"18:21:52",1
"17/04/29","18:40",0.0,15.0,76.7,1002.2,309.5,2.0,3.1,338.1,0.00,11.0,16.2,"18:31:04",1
"17/04/29","18:50",0.0,14.7,78.0,1002.6,282.5,1.5,2.4,302.2,0.00,10.9,16.0,"18:46:32",1
"17/04/29","19:00",0.0,14.4,79.1,1002.9,274.9,1.7,2.8,249.9,0.00,10.9,15.9,"18:55:20",1
"17/04/29","19:10",0.0,14.1,80.0,1002.6,291.2,2.0,3.5,310.7,0.00,10.7,15.8,"19:05:20",1
"17/04/29","19:20",0.0,13.9,81.0,1002.6,299.9,2.1,3.9,327.5,0.00,10.7,15.7,"19:12:16",1
"17/04/29","19:30",0.0,13.8,81.3,1003.1,282.8,1.5,2.5,307.2,0.00,10.7,15.6,"19:28:16",1
"17/04/29","19:40",0.0,13.7,82.2,1003.4,302.1,1.6,3.1,308.2,0.00,10.8,15.6,"19:36:08",1
"17/04/29","19:50",0.0,13.5,82.2,1003.4,297.9,1.5,2.8,321.6,0.00,10.6,15.4,"19:48:00",1
"17/04/29","20:00",0.0,13.4,82.5,1003.8,285.7,1.2,2.1,265.9,0.00,10.5,15.6,"19:53:12",1
"17/04/29","20:10",0.0,13.1,83.6,1003.8,313.9,1.3,1.9,331.6,0.00,10.4,15.4,"20:06:32",1
"17/04/29","20:20",0.0,13.0,84.6,1003.8,277.6,1.1,1.6,300.1,0.00,10.5,15.2,"20:11:52",1
"17/04/29","20:30",0.0,12.9,84.6,1003.6,293.4,1.0,1.2,307.0,0.00,10.4,15.1,"20:27:36",1
"17/04/29","20:40",0.0,12.6,85.2,1003.8,314.6,1.2,1.7,337.1,0.00,10.2,15.2,"20:38:42",1
"17/04/29","20:50",0.0,12.5,85.5,1003.6,319.0,1.5,2.1,341.0,0.00,10.2,14.9,"20:41:36",1
"17/04/29","21:00",0.0,12.7,84.9,1003.8,310.6,1.8,3.4,324.7,0.00,10.3,14.9,"20:51:04",1
"17/04/29","21:10",0.0,12.8,83.5,1003.8,293.4,1.6,2.4,301.8,0.00,10.1,14.8,"21:08:16",1
"17/04/29","21:20",0.0,12.6,82.8,1004.1,292.3,1.2,1.8,307.1,0.00,9.8,14.7,"21:10:32",1
"17/04/29","21:30",0.0,12.3,83.7,1004.3,323.2,0.8,2.2,334.1,0.00,9.7,14.7,"21:29:20",1
"17/04/29","21:40",0.0,11.9,84.5,1004.3,324.9,1.3,2.1,333.5,0.00,9.4,14.6,"21:34:08",1
"17/04/29","21:50",0.0,11.4,86.2,1004.5,295.0,1.0,1.9,292.3,0.00,9.2,14.7,"21:44:16",1
"17/04/29","22:00",0.0,11.2,86.9,1004.3,303.4,0.7,1.2,298.0,0.00,9.1,14.5,"21:57:20",1
"17/04/29","22:10",0.0,11.1,87.8,1004.3,286.9,1.1,2.4,286.4,0.00,9.2,14.4,"22:09:28",1
"17/04/29","22:20",0.0,10.9,88.2,1004.1,305.9,1.5,2.4,322.9,0.00,9.1,14.4,"22:14:40",1
"17/04/29","22:30",0.0,10.7,88.7,1004.5,313.2,1.7,2.1,314.2,0.00,9.0,14.3,"22:27:38",1
"17/04/29","22:40",0.0,10.3,89.3,1004.1,296.7,1.2,2.1,310.9,0.00,8.7,14.3,"22:38:48",1
"17/04/29","22:50",0.0,9.9,90.1,1004.5,319.7,2.2,2.5,313.5,0.00,8.4,14.2,"22:40:08",1
"17/04/29","23:00",0.0,9.7,91.2,1004.8,317.0,1.6,2.0,324.7,0.00,8.4,14.1,"22:56:26",1
"17/04/29","23:10",0.0,9.7,92.1,1004.5,325.2,2.0,3.1,340.9,0.00,8.5,13.9,"23:08:24",1
"17/04/29","23:20",0.0,9.9,92.2,1004.5,297.5,2.1,3.4,311.6,0.00,8.7,14.0,"23:11:44",1
"17/04/29","23:30",0.0,10.1,92.3,1004.8,273.4,1.7,2.7,266.8,0.00,8.9,14.0,"23:24:08",1
"17/04/29","23:40",0.0,10.1,91.8,1004.8,304.5,2.1,3.1,316.2,0.00,8.9,13.8,"23:39:52",1
"17/04/29","23:50",0.0,10.2,91.4,1004.8,288.9,2.1,3.1,303.1,0.00,8.9,13.7,"23:40:08",1
"17/04/29","24:00",0.0,10.1,91.3,1004.8,279.2,1.8,2.8,297.3,0.00,8.8,13.9,"23:52:48",1
